RADUGA 22 [-]

Last updated on Tue Jun 27 2023 00:03:02 GMT+0000 (Coordinated Universal Time)

1 19596U 88095A 23177.11213442 .00000131 00000+0 00000+0 0 9991 2 19596 12.9011 337.8354 0009462 145.8623 220.2772 1.00203860110801

Satellite not in orbit

RADUGA 22 [-]